Temp
11 10 10 10 10 10 9 9 9 9 9 9 9 9 9 10 10 10 10 10 9 9 9 8 8 8 7 7 7 6 6 6 6 6 6 6 6 6 6 6 6 6 7
10 10 10 10 10 9 9 8 8 8 8 8 8 9 9 9 9 9 9 9 9 9 8 8 8 8 7 7 7 6 6 6 6 6 6 6 6 6 6 6 6 6 6
10 10 10 10 10 9 9 9 8 8 7 8 8 8 8 9 9 9 9 9 9 9 8 8 8 8 8 7 7 7 6 6 6 6 6 6 6 6 6 6 6 6 6
11 10 10 9 9 9 9 9 9 8 7 7 7 8 8 8 8 8 8 9 9 9 9 9 8 8 8 8 7 7 7 7 6 6 6 6 6 5 6 6 6 6 6
10 10 9 9 9 9 9 9 9 8 7 7 7 7 8 8 8 8 8 8 8 8 9 9 8 8 8 8 8 8 7 7 6 6 6 6 6 6 6 6 6 6 6
10 9 9 9 8 8 8 9 9 8 8 7 7 7 7 7 7 8 8 8 8 8 8 8 9 8 8 8 8 8 8 8 7 7 6 6 6 6 6 6 6 5 5
9 9 9 9 9 8 9 9 8 8 8 8 7 7 7 7 7 7 7 8 8 8 8 8 8 8 8 8 8 8 8 8 8 7 6 6 6 6 6 5 5 5 5
9 9 9 9 8 8 8 8 8 8 8 8 8 7 7 7 7 7 7 7 8 8 8 8 8 8 8 8 8 8 8 8 7 7 7 7 6 6 5 5 5 5 5
9 9 8 8 8 8 8 8 8 8 8 8 8 8 7 7 7 7 7 7 7 7 8 8 8 8 8 8 8 8 8 8 7 7 7 6 7 6 5 5 5 5 5
8 8 8 8 8 8 8 8 8 7 8 7 8 8 8 8 7 7 7 7 7 7 7 7 7 8 8 8 8 8 7 7 7 7 7 6 7 6 6 5 5 5 5
8 8 8 8 7 7 7 7 7 7 7 7 7 7 8 8 8 7 8 7 7 7 7 6 7 7 7 7 7 7 7 7 7 7 7 7 7 5 5 5 5 4 4
8 8 7 7 7 7 6 6 6 6 6 6 7 7 7 8 7 8 8 8 8 7 7 7 7 7 7 7 7 7 7 7 7 7 7 7 6 7 5 5 5 4 4
8 7 7 6 6 6 6 5 5 5 5 6 6 6 7 7 8 8 8 8 8 8 8 8 7 7 7 7 6 7 8 8 6 6 7 5 5 6 6 5 5 5 4
7 7 7 6 6 5 5 5 5 5 5 5 6 6 6 7 7 7 8 8 8 8 8 8 8 8 8 8 7 7 6 6 6 5 5 6 6 5 5 5 6 5 4
7 6 6 6 5 5 5 5 5 5 5 5 6 5 6 6 6 7 7 8 8 8 8 8 8 8 8 8 8 8 7 7 6 5 4 5 6 5 5 5 5 6 5
7 6 6 5 5 5 4 4 4 4 5 5 5 5 5 6 6 6 7 7 7 7 8 8 8 8 8 8 8 8 8 8 7 6 6 5 6 6 6 5 6 6 5
6 6 6 5 5 5 4 4 4 4 4 4 5 5 5 5 6 6 6 7 7 7 7 8 8 8 8 8 8 8 7 7 7 7 6 6 5 6 6 5 5 5 6
6 5 5 5 5 5 4 4 4 4 4 4 4 5 5 5 5 5 6 6 6 6 7 7 7 7 7 7 8 8 8 8 7 7 7 6 6 5 5 5 5 4 4
6 5 5 5 5 4 4 4 4 4 4 4 4 4 4 4 4 4 5 5 5 6 6 6 6 7 7 7 7 7 7 8 8 7 7 6 5 5 5 5 4 4 4
6 5 5 5 5 4 4 4 4 4 4 4 4 4 3 3 4 4 4 5 5 5 5 6 6 6 6 7 7 7 7 7 7 7 7 7 6 6 5 4 4 4 4
6 5 5 4 4 4 4 4 4 4 3 3 3 3 3 3 3 4 4 4 4 5 5 5 5 5 5 6 6 7 7 7 6 7 7 6 6 5 5 5 3 4 3
5 5 4 4 4 4 4 3 3 3 3 2 2 2 2 2 2 3 3 4 4 4 4 4 4 5 5 5 6 6 7 6 6 6 6 7 6 4 4 4 4 3 3
5 5 4 4 4 3 3 3 2 2 2 2 1 1 1 2 2 2 3 3 3 3 3 4 4 4 4 4 4 4 5 6 6 5 5 4 4 3 3 3 3 2 3
5 5 4 3 3 3 2 2 1 1 0 0 0 1 1 1 1 2 2 2 2 2 3 3 3 3 3 4 3 3 3 4 5 7 6 3 2 2 2 2 3 2 2
5 4 4 3 3 2 2 1 0 -0 -1 -0 -0 -0 0 0 1 1 1 1 1 2 2 2 2 2 2 2 2 2 2 2 2 3 6 5 4 2 2 2 3 3 2
4 3 3 2 2 1 0 -0 -1 -1 -1 -1 -1 -1 -1 -0 -0 -0 0 1 1 1 1 1 1 1 2 2 1 1 2 1 1 1 3 4 4 4 3 2 2 3 3
Height
3153 3154 3155 3157 3156 3156 3156 3156 3156 3157 3156 3156 3156 3156 3155 3154 3153 3153 3152 3151 3150 3149 3148 3147 3147 3147 3146 3146 3146 3146 3145 3145 3145 3144 3143 3142 3141 3141 3140 3139 3137 3136 3135
3154 3153 3154 3154 3154 3154 3154 3154 3153 3154 3154 3155 3154 3155 3154 3154 3154 3153 3152 3151 3150 3149 3148 3147 3146 3146 3146 3145 3144 3144 3144 3144 3143 3142 3142 3141 3140 3139 3139 3137 3135 3134 3132
3151 3152 3153 3153 3153 3152 3151 3151 3152 3151 3152 3152 3153 3153 3153 3153 3152 3152 3152 3150 3150 3149 3148 3146 3146 3145 3144 3143 3143 3142 3142 3142 3141 3140 3139 3139 3138 3137 3137 3135 3134 3132 3130
3151 3151 3152 3152 3151 3151 3151 3150 3150 3150 3149 3150 3150 3150 3151 3151 3151 3151 3150 3150 3149 3148 3147 3146 3146 3144 3143 3142 3141 3141 3140 3140 3140 3139 3138 3137 3137 3137 3136 3134 3132 3131 3130
3149 3150 3150 3150 3149 3149 3149 3149 3148 3148 3148 3148 3148 3148 3149 3149 3149 3149 3148 3148 3148 3147 3146 3145 3145 3145 3143 3142 3140 3139 3138 3138 3138 3137 3137 3135 3134 3135 3133 3132 3131 3130 3129
3148 3148 3148 3148 3148 3148 3147 3147 3147 3146 3146 3146 3146 3146 3146 3146 3146 3146 3146 3146 3145 3145 3145 3145 3143 3143 3142 3141 3140 3139 3137 3136 3136 3135 3135 3134 3133 3133 3132 3131 3129 3130 3129
3147 3147 3147 3146 3146 3145 3144 3144 3144 3144 3143 3143 3143 3143 3143 3143 3143 3143 3143 3143 3142 3142 3142 3142 3142 3141 3141 3140 3139 3137 3136 3135 3134 3132 3132 3132 3132 3131 3130 3129 3128 3128 3127
3145 3145 3145 3145 3144 3143 3142 3141 3141 3141 3141 3141 3141 3140 3140 3140 3140 3140 3140 3140 3140 3139 3139 3139 3139 3138 3138 3138 3137 3136 3134 3133 3132 3131 3130 3130 3129 3129 3128 3128 3128 3127 3126
3143 3143 3143 3143 3142 3142 3141 3140 3139 3139 3138 3138 3137 3137 3137 3136 3136 3136 3136 3137 3137 3137 3136 3136 3136 3136 3135 3134 3134 3134 3133 3131 3130 3129 3128 3127 3126 3127 3126 3126 3126 3126 3125
3141 3141 3141 3141 3140 3139 3139 3138 3137 3137 3136 3135 3135 3134 3134 3133 3134 3133 3132 3133 3133 3133 3133 3133 3133 3132 3132 3131 3130 3130 3129 3128 3128 3126 3126 3125 3124 3124 3124 3124 3124 3124 3124
3139 3139 3139 3138 3137 3137 3136 3135 3135 3134 3134 3133 3132 3131 3131 3130 3130 3129 3129 3130 3129 3130 3130 3130 3129 3128 3128 3127 3127 3126 3125 3125 3124 3124 3124 3122 3122 3122 3122 3121 3121 3122 3122
3136 3136 3136 3136 3135 3134 3134 3133 3133 3132 3131 3131 3130 3129 3128 3127 3126 3125 3126 3125 3125 3125 3125 3124 3124 3124 3123 3122 3123 3121 3121 3121 3121 3119 3120 3119 3119 3119 3119 3119 3118 3118 3119
3134 3134 3134 3133 3133 3133 3132 3132 3131 3131 3130 3129 3128 3128 3126 3125 3124 3123 3122 3122 3121 3120 3120 3120 3120 3119 3118 3117 3116 3115 3115 3116 3116 3115 3116 3115 3116 3115 3116 3116 3116 3115 3115
3131 3131 3131 3131 3131 3131 3131 3130 3130 3129 3128 3127 3126 3125 3124 3122 3121 3120 3119 3118 3117 3116 3116 3115 3114 3114 3113 3113 3112 3112 3111 3112 3112 3111 3111 3111 3110 3111 3112 3113 3113 3112 3112
3128 3128 3129 3129 3129 3128 3128 3127 3127 3126 3125 3124 3123 3122 3120 3119 3118 3116 3115 3114 3112 3111 3110 3110 3110 3108 3108 3107 3106 3106 3107 3107 3106 3106 3106 3106 3106 3105 3107 3107 3108 3108 3108
3124 3125 3126 3126 3126 3126 3126 3125 3124 3124 3122 3121 3120 3119 3118 3116 3114 3112 3111 3110 3108 3107 3105 3104 3103 3103 3102 3101 3102 3101 3100 3101 3102 3101 3101 3101 3101 3100 3101 3102 3102 3103 3104
3121 3121 3122 3123 3123 3123 3122 3122 3120 3120 3119 3118 3116 3115 3115 3112 3111 3109 3107 3106 3104 3102 3100 3098 3097 3096 3096 3095 3095 3094 3093 3093 3092 3094 3095 3095 3094 3094 3094 3093 3095 3096 3097
3115 3116 3118 3119 3119 3119 3119 3118 3117 3116 3115 3114 3113 3111 3109 3108 3106 3104 3103 3101 3100 3097 3094 3092 3091 3090 3088 3087 3086 3086 3086 3085 3085 3084 3085 3086 3087 3086 3088 3087 3087 3087 3089
3110 3112 3113 3115 3116 3116 3115 3114 3113 3112 3110 3109 3107 3107 3105 3104 3102 3100 3098 3097 3094 3092 3088 3086 3084 3083 3082 3080 3078 3078 3077 3077 3077 3077 3077 3077 3077 3078 3078 3079 3078 3080 3081
3106 3109 3109 3110 3111 3111 3110 3110 3108 3107 3105 3103 3101 3101 3099 3098 3097 3095 3092 3090 3088 3086 3083 3080 3078 3076 3074 3072 3071 3070 3070 3070 3069 3069 3067 3067 3067 3067 3069 3070 3071 3072 3072
3101 3103 3105 3106 3106 3106 3106 3105 3103 3102 3100 3098 3096 3095 3093 3092 3091 3088 3086 3083 3081 3079 3075 3073 3071 3069 3067 3064 3061 3061 3061 3061 3061 3058 3059 3058 3058 3058 3058 3059 3059 3062 3065
3094 3096 3097 3099 3100 3100 3100 3099 3098 3096 3095 3093 3092 3089 3090 3088 3085 3082 3080 3077 3075 3073 3070 3067 3064 3061 3060 3056 3052 3051 3049 3054 3051 3050 3047 3048 3045 3046 3047 3048 3049 3049 3052
3086 3089 3090 3092 3093 3094 3093 3093 3093 3091 3089 3088 3087 3085 3084 3082 3079 3077 3075 3072 3068 3065 3062 3060 3056 3053 3050 3051 3046 3042 3039 3039 3038 3041 3041 3037 3035 3035 3037 3038 3038 3039 3040
3079 3083 3084 3086 3087 3088 3088 3088 3086 3085 3084 3083 3081 3080 3078 3076 3073 3071 3068 3065 3061 3057 3055 3052 3050 3046 3043 3041 3040 3038 3034 3030 3026 3023 3031 3031 3027 3027 3027 3027 3029 3029 3031
3074 3077 3078 3079 3080 3082 3081 3081 3080 3080 3079 3078 3076 3075 3073 3071 3067 3064 3061 3057 3054 3051 3048 3045 3043 3040 3035 3032 3031 3029 3026 3023 3022 3017 3009 3016 3020 3018 3018 3017 3017 3016 3018
3069 3071 3072 3072 3074 3075 3075 3075 3075 3074 3074 3073 3072 3070 3068 3064 3061 3057 3054 3050 3046 3042 3039 3036 3033 3031 3028 3024 3021 3020 3016 3013 3013 3010 3005 3002 3000 3007 3007 3007 3005 3007 3008
Wind_Speed
1 2 3 6 7 9 11 12 11 11 9 8 8 8 8 7 7 7 8 9 10 10 10 9 7 6 5 4 4 5 6 8 9 10 12 13 14 14 14 14 16 18 18
2 3 4 6 7 7 8 9 9 10 10 9 10 11 10 9 9 8 7 7 8 9 9 9 8 7 5 5 6 6 7 8 9 11 12 13 12 12 13 14 17 17 16
5 5 6 7 8 9 8 8 8 8 9 9 10 11 11 11 10 10 9 8 8 8 9 8 8 8 8 7 7 8 9 10 10 10 12 13 11 9 12 15 16 15 15
5 6 7 8 9 9 8 8 8 8 9 10 11 11 12 12 11 11 10 10 9 8 9 9 8 8 8 8 8 9 9 10 10 11 12 13 11 8 15 15 14 15 14
7 8 7 7 8 9 10 11 10 10 10 11 12 12 12 12 12 11 11 10 10 10 10 10 10 10 10 9 10 10 10 10 10 11 11 12 10 12 15 13 14 15 14
8 6 6 8 9 10 10 11 12 12 12 13 14 14 14 14 14 13 12 11 10 10 11 12 11 11 12 10 11 12 11 11 10 11 11 12 15 14 16 14 13 15 13
7 6 7 8 10 11 11 12 13 14 15 15 16 16 16 16 15 15 14 12 11 11 11 12 13 14 13 12 12 12 14 13 12 10 11 13 12 15 14 16 16 14 14
8 8 8 10 12 13 12 12 12 12 13 14 15 16 17 17 17 17 17 16 14 12 12 12 13 13 14 14 13 13 14 15 14 12 11 15 14 16 16 17 16 15 15
9 9 10 11 13 13 12 11 11 11 11 12 12 14 15 16 16 17 18 17 16 16 15 15 15 15 14 14 15 16 16 16 15 14 12 11 12 14 17 17 16 14 16
10 10 12 13 13 12 10 9 9 9 10 10 11 13 13 15 15 16 18 17 18 18 18 18 19 19 18 17 17 17 17 17 17 17 17 14 12 10 15 18 16 16 16
12 13 14 13 11 10 9 8 7 8 7 8 8 9 11 13 15 16 18 16 18 17 18 18 21 22 22 20 20 20 21 19 19 19 19 21 14 10 15 15 17 17 17
14 14 14 13 9 8 7 6 5 6 7 7 8 9 9 10 11 13 14 16 17 17 18 20 20 22 23 23 23 22 23 24 22 22 20 21 21 13 14 17 16 18 19
16 16 13 11 9 8 9 8 7 8 8 9 10 10 11 10 10 11 13 13 14 16 17 17 20 21 23 23 20 23 22 24 21 22 22 18 26 20 16 20 17 19 20
17 16 14 11 9 9 9 11 12 12 12 12 11 11 12 12 12 13 13 14 15 16 17 18 19 21 22 23 25 25 23 22 26 23 33 27 27 28 22 22 20 21 21
18 17 15 12 11 10 9 10 13 14 14 15 14 12 13 13 14 15 16 18 18 18 19 20 22 23 24 25 26 27 27 29 28 30 26 33 32 32 30 26 24 24 24
20 19 16 14 13 12 12 13 14 16 18 18 18 16 15 16 16 17 17 19 20 20 21 22 23 25 25 27 27 28 30 31 31 29 27 28 31 33 34 31 30 26 26
21 20 18 17 15 15 15 16 17 19 21 21 22 21 19 18 18 18 19 20 21 23 24 25 26 27 27 27 27 28 29 30 31 32 34 33 33 33 35 38 33 30 29
24 22 21 19 18 17 16 17 18 20 22 23 23 22 21 21 21 21 21 22 23 24 26 27 28 28 29 30 31 30 30 30 32 32 32 36 40 41 37 39 36 35 31
25 24 23 22 20 19 19 20 21 22 24 25 25 23 21 21 21 22 22 23 24 25 27 28 29 31 31 32 33 33 34 32 33 32 34 36 37 40 44 44 41 34 33
26 25 26 24 23 22 22 23 25 26 27 27 27 26 23 22 22 22 23 24 25 26 27 29 29 30 32 34 35 36 34 33 33 35 35 35 37 40 38 41 43 42 39
27 27 28 26 26 26 26 26 27 28 28 28 28 26 24 24 24 24 25 26 26 27 28 30 31 32 31 35 37 36 35 35 33 35 35 36 38 39 41 40 44 44 45
30 29 29 29 29 28 28 28 28 28 28 27 24 24 24 25 25 26 27 28 29 28 30 32 33 34 34 33 38 39 39 33 33 32 35 34 36 33 34 36 38 43 47
30 30 32 31 31 29 30 29 28 27 26 25 23 23 25 26 27 28 29 30 31 32 32 33 35 36 37 34 36 39 40 39 38 31 28 31 34 35 33 29 29 37 45
32 32 33 32 32 30 30 29 27 25 24 23 22 24 26 28 30 30 31 33 34 35 36 36 37 37 39 38 34 35 37 39 41 43 31 26 31 34 38 34 34 33 40
32 31 32 32 32 30 29 28 26 23 23 22 22 25 27 29 31 33 34 36 37 38 38 39 38 38 38 39 38 37 37 36 35 40 45 35 30 34 35 37 38 38 39
28 26 29 31 30 27 26 25 23 22 23 23 25 27 28 30 32 36 38 39 40 41 41 41 41 39 39 39 39 38 39 39 35 37 41 42 42 33 38 42 40 39 38
Wind_Direction
94 255 277 283 292 298 303 308 313 313 317 317 324 332 341 352 2 13 19 20 24 19 16 20 22 14 1 343 316 302 293 289 288 289 290 292 296 300 301 306 305 307 303
145 233 256 268 281 287 294 303 308 310 312 309 311 317 324 331 335 346 354 6 10 15 9 5 10 9 360 344 328 310 304 298 295 296 297 294 300 297 309 310 309 310 310
215 262 280 287 289 296 297 293 290 292 295 296 296 304 311 317 323 328 331 340 351 354 356 354 353 355 353 345 332 323 315 310 305 306 301 306 303 300 318 320 315 316 317
244 266 279 286 290 290 292 295 288 282 280 280 282 289 298 307 313 315 319 322 328 334 337 338 337 338 342 336 332 325 321 316 312 308 308 306 297 300 325 326 323 325 326
249 265 277 288 295 298 295 287 282 278 276 277 278 281 286 293 299 304 307 310 312 316 323 327 326 320 329 329 329 327 324 319 313 308 310 305 289 324 323 323 325 328 328
250 270 289 311 315 308 309 297 275 266 265 266 269 274 280 285 289 293 297 299 300 306 310 310 316 314 320 321 321 322 322 322 321 310 307 304 304 314 318 315 326 329 322
257 274 301 311 309 307 306 300 289 277 266 266 269 272 275 277 281 283 285 286 291 294 299 306 308 309 308 309 312 316 317 321 324 317 310 306 304 309 309 315 320 322 318
260 279 296 305 307 309 311 309 306 301 293 283 278 277 277 279 280 280 282 282 283 286 289 289 289 292 297 301 304 307 311 314 318 318 309 312 309 313 310 314 316 316 308
266 284 295 301 308 312 314 317 310 304 299 295 289 283 280 278 281 279 281 285 290 289 285 285 286 287 288 292 297 300 302 307 311 306 303 303 315 310 301 307 305 307 311
270 282 290 300 311 314 314 313 314 311 305 299 296 292 291 290 285 283 281 283 281 280 281 284 288 287 285 286 287 287 290 294 299 299 301 291 301 295 297 300 300 301 300
273 280 286 297 307 311 310 310 310 312 316 317 314 305 296 291 287 287 286 288 280 281 286 286 280 282 285 284 282 284 284 288 287 289 293 293 295 285 288 291 295 292 292
272 276 286 295 299 296 294 298 306 308 309 312 314 316 313 302 294 290 291 288 295 290 284 280 283 282 281 281 281 278 284 284 284 286 282 292 295 281 274 280 287 286 284
271 275 281 286 292 293 285 288 298 307 314 318 320 318 312 307 298 291 285 284 284 289 290 290 282 281 283 285 284 284 279 280 286 293 288 290 285 302 280 280 277 279 282
271 271 274 276 283 290 287 279 280 288 296 301 308 314 313 311 303 297 293 287 286 286 287 286 284 286 284 285 285 282 286 284 276 274 276 287 289 285 285 282 280 273 271
268 267 266 268 276 283 283 282 277 282 286 291 298 302 309 312 312 309 301 294 289 286 287 285 285 284 283 283 282 283 278 272 278 281 278 283 288 286 285 280 277 274 271
263 261 261 258 266 272 278 278 279 281 285 287 289 292 302 306 307 305 302 296 291 290 284 283 281 280 281 280 279 278 278 277 269 269 275 276 282 280 282 280 277 269 269
255 253 251 252 262 272 281 287 288 289 290 291 290 291 297 300 301 303 303 298 295 290 288 285 284 284 282 280 278 275 276 277 275 272 264 267 271 273 278 280 275 273 264
248 246 247 250 260 270 281 289 296 297 296 295 294 292 294 296 296 297 297 298 297 292 289 286 285 283 283 282 280 279 276 274 274 276 273 265 263 267 271 275 272 271 269
248 243 243 248 258 268 279 289 297 301 303 296 295 297 297 298 293 293 295 297 295 292 289 289 288 288 285 284 283 282 280 278 276 273 276 276 272 268 264 263 268 264 266
253 248 246 246 255 265 275 285 293 300 303 299 297 299 301 298 294 293 296 299 299 296 293 291 289 287 288 285 283 282 283 280 276 277 275 275 276 274 269 265 264 264 263
252 249 252 253 258 266 274 283 290 297 300 300 298 300 301 299 298 298 302 302 303 300 296 294 292 291 289 289 287 283 283 282 280 274 279 278 279 274 271 266 260 257 258
248 247 248 251 257 266 275 283 288 293 295 296 299 296 298 297 300 302 303 304 304 302 299 297 296 294 295 293 291 289 286 278 278 281 282 285 284 280 272 269 265 254 252
249 246 248 251 256 265 273 282 287 289 291 292 292 295 299 301 302 303 304 304 303 303 301 299 297 297 295 294 294 295 291 285 282 276 283 281 284 286 281 272 266 255 252
253 247 250 254 259 265 275 282 285 289 289 289 290 295 298 301 300 302 303 305 304 303 300 297 295 294 292 293 293 292 291 292 290 283 273 265 265 266 269 269 263 260 255
260 250 250 253 259 267 273 281 286 286 286 286 289 295 296 298 300 301 304 305 304 300 297 295 293 292 292 293 294 293 290 288 289 288 285 282 260 258 264 266 262 256 250
266 255 251 255 260 270 278 281 282 281 283 284 290 293 297 298 301 303 305 302 299 297 295 292 291 290 289 290 292 293 291 291 288 284 283 284 283 265 253 258 265 266 258